Home   Weather   Fairbanks   Past weeks
Flag for USA

Past Weather in Fairbanks, Alaska, USA — Yesterday and Last 2 Weeks

Now
49 °F

Passing clouds.


Feels Like: 48 °F
Forecast: 71 / 43 °F
Wind: 3 mph from Southeast

Location: Wainwright U. S. Army Airfield

Current Time: May 21, 2019 at 9:10:52 am

Latest Report: May 21, 2019 at 7:58 am


Visibility: 10 mi

Pressure: 29.97 "Hg

Humidity: 68%

Dew Point: 39 °F

Location of FairbanksLocation

Past Weather in Fairbanks — Graph

°F

Fairbanks Temperature Yesterday

Maximum temperature yesterday: 70 °F (at 4:58 pm)
Minimum temperature yesterday: 41 °F (at 3:58 am)
Average temperature yesterday: 57 °F

High & Low Weather Summary for the Past Weeks

 TemperatureHumidityPressure
High74 °F (May 15, 5:58 pm)100% (May 9, 3:11 am)30.22 "Hg (May 9, 3:11 am)
Low27 °F (May 7, 4:58 am)13% (May 10, 3:58 pm)29.40 "Hg (May 10, 3:58 pm)
Average52 °F56%29.77 "Hg
* Reported May 6 7:58 am — May 21 7:58 am, Fairbanks. Weather by CustomWeather, © 2019

Note: Actual official high and low records may vary slightly from our data, if they occured in-between our weather recording intervals... More about our weather records

Advertising

Fairbanks Weather History for the Previous 24 Hours

Scroll right to see more
 ConditionsComfort  
Time TempWeatherWind HumidityBarometerVisibility
7:58 am
Tue, May 21
49 °FPassing clouds.3 mph68%29.97 "Hg10 mi
6:58 am46 °FSunny.No wind77%29.96 "Hg10 mi
5:58 am44 °FSunny.No wind81%29.95 "Hg10 mi
4:58 am44 °FSunny.No wind77%29.94 "Hg10 mi
3:58 am45 °FPassing clouds.5 mph77%29.92 "Hg10 mi
2:58 am45 °FOvercast.3 mph75%29.90 "Hg10 mi
1:58 am51 °FClear.No wind60%29.88 "Hg10 mi
12:58 am55 °FClear.No wind51%29.86 "Hg10 mi
11:58 pm
Mon, May 20
57 °FClear.5 mph48%29.84 "Hg10 mi
10:58 pm60 °FBroken clouds.6 mph40%29.81 "Hg9 mi
9:58 pm65 °FSunny.6 mph32%29.78 "Hg10 mi
8:58 pm67 °FPartly sunny.14 mph30%29.75 "Hg10 mi
7:58 pm67 °FSunny.12 mph30%29.73 "Hg10 mi
6:58 pm69 °FPassing clouds.10 mph29%29.71 "Hg10 mi
5:58 pm69 °FScattered clouds.9 mph24%29.69 "Hg10 mi
4:58 pm70 °FPartly sunny.8 mph24%29.69 "Hg10 mi
3:58 pm69 °FBroken clouds.No wind22%29.69 "Hg10 mi
2:58 pm68 °FBroken clouds.5 mph33%29.69 "Hg10 mi
1:58 pm65 °FBroken clouds.No wind38%29.69 "Hg10 mi
12:58 pm60 °FBroken clouds.No wind51%29.70 "Hg10 mi
11:58 am59 °FPartly sunny.No wind52%29.69 "Hg10 mi
10:58 am57 °FPartly sunny.No wind59%29.69 "Hg10 mi
9:58 am54 °FOvercast.No wind66%29.69 "Hg10 mi
Weather by CustomWeather, © 2019

See weather overview